GW6028 Weather Reports


time (UTC)temp
C
wind
direction
speed
KPH
gust
KPH
rain 1hr
cm
rain 24hr
cm
rain mn
cm
humidity
%
barometer
mb
20260505035504 15 262 9.7 20.9 0.00 0.00 0.00 54 1009.6
20260505035007 15 230 11.3 22.5 0.00 0.00 0.00 54 1009.5
20260505034008 15 210 9.7 19.3 0.00 0.00 0.00 53 1009.5
20260505033506 15 167 11.3 19.3 0.00 0.00 0.00 53 1009.5
20260505033022 15 248 8.0 19.3 0.00 0.00 0.00 53 1009.4
20260505032507 15 210 9.7 24.1 0.00 0.00 0.00 53 1009.4
20260505032008 15 255 14.5 24.1 0.00 0.00 0.00 52 1009.4
20260505031523 15 218 11.3 24.1 0.00 0.00 0.00 52 1009.4
20260505031007 15 242 9.7 24.1 0.00 0.00 0.00 52 1009.4
20260505030508 15 228 12.9 24.1 0.00 0.00 0.00 52 1009.4
20260505030042 15 203 11.3 22.5 0.00 0.00 0.00 51 1009.5
20260505025508 15 172 9.7 20.9 0.00 0.00 0.00 51 1009.5
20260505025008 15 214 12.9 20.9 0.00 0.00 0.00 51 1009.4
20260505024519 15 160 11.3 19.3 0.00 0.00 0.00 50 1009.4
20260505024009 15 172 9.7 19.3 0.00 0.00 0.00 50 1009.5
20260505023507 16 179 12.9 20.9 0.00 0.00 0.00 50 1009.4
20260505023025 16 139 11.3 20.9 0.00 0.00 0.00 49 1009.4
20260505022506 16 226 9.7 19.3 0.00 0.00 0.00 49 1009.4
20260505022011 16 204 11.3 29.0 0.00 0.00 0.00 49 1009.4
20260505021525 16 227 14.5 29.0 0.00 0.00 0.00 48 1009.4
20260505021004 16 242 12.9 22.5 0.00 0.00 0.00 48 1009.4
20260505020503 16 227 14.5 22.5 0.00 0.00 0.00 48 1009.3
20260505015504 16 219 11.3 24.1 0.00 0.00 0.00 48 1009.3
20260505015004 16 243 16.1 24.1 0.00 0.00 0.00 47 1009.2
20260505014520 16 240 12.9 24.1 0.00 0.00 0.00 48 1009.1
20260505014008 16 199 12.9 24.1 0.00 0.00 0.00 48 1009.2
20260505013507 17 216 14.5 24.1 0.00 0.00 0.00 47 1009.1
20260505013022 17 220 11.3 19.3 0.00 0.00 0.00 47 1009.1
20260505012503 17 224 11.3 27.4 0.00 0.00 0.00 47 1009.0
20260505012001 17 231 16.1 27.4 0.00 0.00 0.00 46 1008.9
20260505011003 17 200 14.5 25.7 0.00 0.00 0.00 45 1008.6
20260505010502 17 198 12.9 24.1 0.00 0.00 0.00 45 1008.5
20260505010008 17 225 9.7 24.1 0.00 0.00 0.00 45 1008.5
20260505005507 17 207 9.7 22.5 0.00 0.00 0.00 44 1008.3
20260505005004 18 250 12.9 22.5 0.00 0.00 0.00 44 1008.1
20260505004524 18 252 9.7 25.7 0.00 0.00 0.00 44 1007.9
20260505004004 18 164 16.1 25.7 0.00 0.00 0.00 42 1007.8
20260505003505 18 223 12.9 25.7 0.00 0.00 0.00 43 1007.7
20260505002505 18 239 16.1 27.4 0.00 0.00 0.00 41 1007.6
20260505002008 18 240 14.5 27.4 0.00 0.00 0.00 40 1007.4
20260505001518 18 145 12.9 20.9 0.00 0.00 0.00 40 1007.2
20260505001003 18 163 3.2 11.3 0.00 0.00 0.00 38 1007.0
20260505000507 18 222 6.4 11.3 0.00 0.00 0.00 37 1006.9
20260505000009 19 208 1.6 9.7 0.00 0.00 0.00 38 1006.8
20260504235503 19 203 3.2 9.7 0.00 0.00 0.00 37 1006.8
20260504235004 19 200 3.2 14.5 0.00 0.00 0.00 37 1006.7
20260504234512 20 288 6.4 14.5 0.00 0.00 0.00 36 1006.7
20260504234003 20 224 3.2 14.5 0.00 0.00 0.00 36 1006.7
20260504233504 20 210 6.4 14.5 0.00 0.00 0.00 35 1006.6
20260504233021 20 211 6.4 12.9 0.00 0.00 0.00 34 1006.4
20260504232507 20 223 6.4 11.3 0.00 0.00 0.00 35 1006.5
20260504232005 20 291 6.4 12.9 0.00 0.00 0.00 34 1006.4
20260504231516 21 212 6.4 12.9 0.00 0.00 0.00 34 1006.4
20260504231011 21 187 8.0 12.9 0.00 0.00 0.00 33 1006.2
20260504230507 21 218 3.2 12.9 0.00 0.00 0.00 33 1006.1
20260504230022 21 247 4.8 20.9 0.00 0.00 0.00 33 1006.0
20260504225504 21 208 8.0 20.9 0.00 0.00 0.00 31 1006.0
20260504225003 22 239 6.4 17.7 0.00 0.00 0.00 31 1006.0
20260504224505 22 220 8.0 19.3 0.00 0.00 0.00 31 1005.9
20260504224003 22 229 6.4 19.3 0.00 0.00 0.00 31 1005.9
20260504223504 22 258 6.4 16.1 0.00 0.00 0.00 30 1005.9
20260504223022 22 229 8.0 17.7 0.00 0.00 0.00 31 1005.8
20260504222504 22 225 9.7 17.7 0.00 0.00 0.00 32 1005.8
20260504222008 22 226 6.4 17.7 0.00 0.00 0.00 31 1005.8
20260504221516 22 219 9.7 20.9 0.00 0.00 0.00 31 1005.9
20260504221008 22 236 8.0 20.9 0.00 0.00 0.00 31 1005.8
20260504220505 22 179 8.0 20.9 0.00 0.00 0.00 30 1005.8
20260504220023 22 242 6.4 17.7 0.00 0.00 0.00 30 1005.8
20260504215509 22 209 8.0 27.4 0.00 0.00 0.00 30 1005.8
20260504215010 22 279 6.4 27.4 0.00 0.00 0.00 31 1005.8
20260504214523 22 217 8.0 20.9 0.00 0.00 0.00 30 1005.7
20260504214009 22 214 8.0 20.9 0.00 0.00 0.00 30 1005.7
20260504213504 22 188 6.4 20.9 0.00 0.00 0.00 30 1005.8
20260504213019 22 242 6.4 20.9 0.00 0.00 0.00 30 1005.7
20260504212503 22 285 9.7 20.9 0.00 0.00 0.00 30 1005.7
20260504212005 22 224 8.0 20.9 0.00 0.00 0.00 30 1005.7
20260504211515 22 236 11.3 20.9 0.00 0.00 0.00 30 1005.7
20260504211004 22 233 8.0 14.5 0.00 0.00 0.00 30 1005.7
20260504210506 22 205 6.4 24.1 0.00 0.00 0.00 31 1005.7
20260504205507 22 205 14.5 30.6 0.00 0.00 0.00 30 1005.7
20260504205007 22 279 14.5 30.6 0.00 0.00 0.00 29 1005.7
20260504204521 22 221 12.9 25.7 0.00 0.00 0.00 29 1005.7
20260504204011 22 222 9.7 22.5 0.00 0.00 0.00 29 1005.8
20260504203513 22 234 11.3 24.1 0.00 0.00 0.00 28 1005.7
20260504203022 22 256 9.7 27.4 0.00 0.00 0.00 30 1005.8
20260504202509 22 225 8.0 27.4 0.00 0.00 0.00 28 1005.6
20260504202004 22 274 9.7 27.4 0.00 0.00 0.00 28 1005.7
20260504201509 22 110 12.9 27.4 0.00 0.00 0.00 28 1005.7
20260504201003 22 222 9.7 24.1 0.00 0.00 0.00 28 1005.7
20260504200503 23 250 12.9 30.6 0.00 0.00 0.00 28 1005.7
20260504200019 22 198 14.5 30.6 0.00 0.00 0.00 28 1005.8
20260504195507 22 319 6.4 22.5 0.00 0.00 0.00 27 1005.8
20260504195007 22 217 12.9 29.0 0.00 0.00 0.00 27 1005.8
20260504194523 22 222 14.5 29.0 0.00 0.00 0.00 28 1005.9
20260504194009 22 255 14.5 29.0 0.00 0.00 0.00 27 1005.7
20260504193024 22 205 14.5 27.4 0.00 0.00 0.00 28 1005.7
20260504192508 22 298 11.3 27.4 0.00 0.00 0.00 28 1005.7
20260504192009 22 341 12.9 27.4 0.00 0.00 0.00 28 1005.7
20260504191537 22 262 14.5 29.0 0.00 0.00 0.00 30 1005.7
20260504191009 22 133 11.3 29.0 0.00 0.00 0.00 28 1005.8
20260504190508 22 271 14.5 32.2 0.00 0.00 0.00 28 1005.8
20260504190019 22 198 11.3 32.2 0.00 0.00 0.00 30 1005.9
20260504185503 22 276 22.5 32.2 0.00 0.00 0.00 28 1006.2
20260504185007 22 224 19.3 29.0 0.00 0.00 0.00 28 1006.5
20260504184532 22 226 11.3 33.8 0.00 0.00 0.00 28 1006.0
20260504184010 22 183 12.9 33.8 0.00 0.00 0.00 30 1006.1
20260504183508 22 287 8.0 33.8 0.00 0.00 0.00 30 1006.0
20260504183029 22 155 12.9 32.2 0.00 0.00 0.00 30 1006.3
20260504182512 21 248 17.7 33.8 0.00 0.00 0.00 29 1006.3
20260504182010 21 160 17.7 35.4 0.00 0.00 0.00 29 1006.4
20260504181523 21 264 9.7 35.4 0.00 0.00 0.00 32 1006.2
20260504181010 21 293 17.7 29.0 0.00 0.00 0.00 31 1006.1
20260504180512 21 257 12.9 27.4 0.00 0.00 0.00 30 1006.4
20260504180033 21 217 11.3 29.0 0.00 0.00 0.00 30 1006.5
20260504175510 21 181 11.3 41.8 0.00 0.00 0.00 32 1006.5
20260504175005 20 272 16.1 41.8 0.00 0.00 0.00 31 1006.4
20260504174513 21 285 16.1 40.2 0.00 0.00 0.00 30 1006.5
20260504174007 20 267 19.3 40.2 0.00 0.00 0.00 31 1006.6
20260504173506 20 216 17.7 32.2 0.00 0.00 0.00 29 1006.8
20260504173020 21 352 14.5 32.2 0.00 0.00 0.00 30 1006.5
20260504172507 20 212 16.1 32.2 0.00 0.00 0.00 31 1006.6
20260504172008 20 213 14.5 32.2 0.00 0.00 0.00 31 1006.8
20260504171522 20 297 12.9 29.0 0.00 0.00 0.00 31 1006.7
20260504171011 20 263 16.1 35.4 0.00 0.00 0.00 31 1006.8
20260504170507 20 295 16.1 35.4 0.00 0.00 0.00 31 1006.9
20260504151005 18 179 12.9 30.6 0.00 0.00 0.00 36 1007.8
20260504150500 18 179 11.3 27.4 0.00 0.00 0.00 39 1008.0
20260504141010 17 291 8.0 24.1 0.00 0.08 0.00 40 1008.3
20260504130507 14 198 9.7 19.3 0.00 0.08 0.00 45 1009.1
20260504110504 8 229 4.8 8.0 0.00 0.08 0.00 60 1009.9
20260504100507 7 262 3.2 6.4 0.00 0.08 0.00 62 1010.1
20260504082006 7 252 1.6 4.8 0.00 0.08 0.00 62 1009.6
20260504081520 7 210 1.6 6.4 0.00 0.08 0.00 61 1009.7
20260504081010 7 245 1.6 6.4 0.00 0.08 0.00 60 1009.7
20260504080508 7 210 1.6 6.4 0.00 0.08 0.00 61 1009.7
20260504050510 5 233 4.8 9.7 0.00 0.08 0.00 63 1009.7
20260504045507 5 214 4.8 9.7 0.00 0.08 0.00 65 1009.7
20260504045007 5 265 4.8 8.0 0.00 0.08 0.00 65 1009.6
20260504044517 5 236 4.8 6.4 0.00 0.08 0.00 64 1009.7
20260504044011 5 220 3.2 6.4 0.00 0.08 0.00 63 1009.7
20260504043513 5 253 3.2 6.4 0.00 0.08 0.00 62 1009.7
20260504043022 5 243 3.2 6.4 0.00 0.08 0.00 63 1009.7
20260504042510 5 230 3.2 6.4 0.00 0.08 0.00 63 1009.6
20260504042009 5 262 3.2 11.3 0.00 0.08 0.00 63 1009.6
20260504041526 5 250 3.2 11.3 0.00 0.08 0.00 62 1009.6
20260504041011 5 218 4.8 6.4 0.00 0.08 0.00 62 1009.6
20260504040510 5 253 3.2 6.4 0.00 0.08 0.00 62 1009.5
20260504040027 5 235 3.2 6.4 0.00 0.08 0.00 62 1009.5